Regional Weather Roundup
Issued by NWS Wakefield, VA

Home | Current Version | Previous Version | Graphics & Text | Print | Product List | Glossary Off
Versions: 1 2 3 4 5 6 7 8 9 10 11 12 13 14 15 16 17 18 19 20 21 22 23 24 25 26 27 28 29 30 31 32 33 34 35 36 37 38 39 40 41 42 43 44 45 46

000
ASUS41 KAKQ 250710
RWRAKQ

REGIONAL WEATHER ROUNDUP
NATIONAL WEATHER SERVICE WAKEFIELD VA
200 AM EST THU DEC 25 2014

Note: "fair" indicates few or no clouds below 12,000 feet with no
significant weather and/or obstructions to visibility. * = Denotes
station may not report precipitation (e.g., rain,snow,etc.),
thunder or fog.

VAZ042-051-052>054-056-250800-
NORTHERN VIRGINIA

CITY           SKY/WX    TMP DP  RH WIND       PRES   REMARKS
WASH NATIONAL  LGT RAIN  59  55  87 N8        29.62R
DULLES         LGT RAIN  53  50  89 NW8       29.63R
FORT BELVOIR   CLOUDY    59  57  94 W7        29.63R
QUANTICO       CLOUDY    61  56  83 W13       29.63R
FREDERICKSBRG* CLOUDY    59  59 100 SW9       29.62R
STAFFORD*      CLOUDY    60  60 100 SW6       29.66R
WARRENTON      CLOUDY    58  58 100 W3        29.62R
CULPEPER*      CLOUDY    57  55  94 CALM      29.62R
MANASSAS*      CLOUDY    57  55  94 NW5       29.63R
LEESBURG*      CLOUDY    52  52 100 NW6       29.64R
WINCHESTER     LGT RAIN  52  37  58 W8        29.64R
FRONT ROYAL*   CLOUDY    52  45  76 W6        29.64R
LURAY*         LGT RAIN  54  45  71 W16       29.64S
$$

VAZ048-049-060>072-079>083-250800-
CENTRAL AND SOUTH CENTRAL VIRGINIA

CITY           SKY/WX    TMP DP  RH WIND       PRES   REMARKS
RICHMOND       LGT RAIN  65  61  87 SW14G21   29.65R
CHESTERFIELD*  CLOUDY    64  54  68 SW10G17   29.66R
PETERSBURG*    LGT RAIN  65  63  91 SW7       29.66R
HANOVER        CLOUDY    62  58  86 SW12G18   29.66R
TAPPAHANNOCK*  LGT RAIN  66  62  86 S8        29.64R
QUINTON*       CLOUDY    64  62  93 SW6G18    29.64R
CHARLOTTSVILLE CLOUDY    57  47  69 SW5       29.62S
GORDONSVILLE*  CLOUDY    55  52  90 SW6       29.62R
ORANGE*        CLOUDY    55  54  94 S3        29.65R
LOUISA*        LGT RAIN  57  55  94 SW3       29.64R
BUMPASS*       CLOUDY    57  55  95 W8        29.66R
FARMVILLE*     CLOUDY    58  58 100 SW7       29.66R
CREWE*         CLOUDY    60  56  85 W8G17     29.65R
FORT PICKETT*  CLOUDY    60  56  88 SW10G18   29.67S
CHASE CITY*    CLOUDY    58  58 100 W8        29.69R
CLARKSVILLE*   CLOUDY    59  55  88 W5        29.69R
SOUTH HILL*    CLOUDY    60  57  91 W13G23    29.74R
LAWRENCEVILLE* CLOUDY    63  62  97 SW8       29.67R
EMPORIA*       CLOUDY    63  61  94 S7        29.67F
$$

VAZ088>098-250800-
SOUTHEAST VIRGINIA

CITY           SKY/WX    TMP DP  RH WIND       PRES   REMARKS
NORFOLK        CLOUDY    66  62  87 SW15G23   29.67R
VIRGINIA BEACH LGT RAIN  68  64  87 SW17      29.68R
NORFOLK NAVAL  CLOUDY    68  61  78 SW12      29.69S
WEST POINT*    CLOUDY    66  62  85 S10G16    29.65S
SALUDA*        PTSUNNY   65  62  90 SW9G16    29.63F
NEWPORT NEWS   LGT RAIN  67  61  81 S10       29.66S
LANGLEY AFB    CLOUDY    64  63  94 SW6       29.67S
FORT EUSTIS    CLOUDY    64  64 100 S7        29.65S
WILLIAMSBURG*  CLOUDY    66  64  94 SW8       29.66F
HR EXEC AP*    CLOUDY    64  63  94 SW8       29.70S
FRANKLIN*      CLOUDY    66  63  88 SW9       29.68S
WAKEFIELD      CLOUDY    66  61  84 SW8       29.66F
$$

VAZ020-022-025-037-045-250800-
WEST CENTRAL AND SOUTHWEST VIRGINIA

CITY           SKY/WX    TMP DP  RH WIND       PRES   REMARKS
STAUNTON*      CLOUDY    51  43  74 W6        29.69R
WAYNESBORO*    CLOUDY    49  44  83 W9        29.66S
HOT SPRINGS VA RAIN      38  38 100 NW16      29.63F VSB<1/4
LYNCHBURG      CLOUDY    50  48  93 S3        29.66F
DANVILLE       LGT RAIN  55  53  93 E3        29.65F
SOUTH BOSTON*  CLOUDY    55  54  94 SW6       29.68S
MARTINSVILLE   CLOUDY    51  51 100 E5        29.68F FOG
ROANOKE        CLOUDY    49  39  68 W9        29.70R
BLACKSBURG     CLOUDY    42  37  79 W9G18     29.78R
DUBLIN*        CLOUDY    45  40  83 W8        29.79R
MARION*        RAIN      40  37  88 W13       29.78R
HILLSVILLE*    CLOUDY    41  37  83 W10G20    29.75S
RICHLANDS*     CLOUDY    38  34  87 W3        29.79S
WISE*          CLOUDY    37  37 100 SW7       29.81R
ABINGDON*      CLOUDY    42  38  84 W8        29.81R
$$

MDZ021>025-VAZ099-100-250800-
SOUTHERN MARYLAND AND THE DELMARVA PENINSULA

CITY           SKY/WX    TMP DP  RH WIND       PRES   REMARKS
PATUXENT RIVER CLOUDY    65  60  84 SW6       29.61S
BAY BRIDGE APT LGT RAIN  63  63 100 SW10G17   29.59R
LEONARDTOWN    CLOUDY    63  59  88 SW7       29.62S
DOVER          CLOUDY    65  65  99 S18G28    29.58R
GEORGETOWN     CLOUDY    66  61  84 SW15      29.63R
EASTON         CLOUDY    64  64 100 SW9       29.64R
CAMBRIDGE      CLOUDY    63  61  94 S7        29.61R
SALISBURY      CLOUDY    66  60  81 SW13      29.63R
OCEAN CITY     LGT RAIN  59  57  93 SW13      29.65R
WALLOPS ISLAND CLOUDY    63  60  90 SW10      29.65R
ACCOMACK*      HVY RAIN  66  59  77 SW17G25   29.66R
$$

NCZ012>017-030>032-250800-
NORTH CENTRAL AND EASTERN NORTH CAROLINA

CITY           SKY/WX    TMP DP  RH WIND       PRES   REMARKS
ROANOKE RAPIDS CLOUDY    63  61  94 SW10      29.68R
RALEIGH        LGT RAIN  62  57  83 W9G21     29.72R
ELIZABETH CITY LGT RAIN  70  65  84 SW16      29.70R
AHOSKIE*       CLOUDY    64  61  91 S5        29.70S
EDENTON*       CLOUDY    65  63  95 SW9G16    29.72R
CURRITUCK*     LGT RAIN  68  66  93 SW13G25   29.70R
KILL DEVIL HLS RAIN      67  67 100 SW9G20    29.70R
MANTEO         CLOUDY    64  64 100 SW26G32   29.71R
CAPE HATTERAS  LGT RAIN  66  66 100 SW18G25   29.74R FOG
TARBORO*       CLOUDY    66  62  86 SW7       29.72R
GOLDSBORO      CLOUDY    66  66 100 SW9       29.73R
WASHINGTON     CLOUDY    66  63  89 SW10      29.73S
GREENVILLE     CLOUDY    66  63  88 SW10      29.75S
NEW BERN       CLOUDY    68  63  84 SW8       29.75S
WILMINGTON     CLOUDY    65  63  93 SW9       29.77S
$$

VAZ048-250800-
ELSEWHERE

CITY           SKY/WX    TMP DP  RH WIND       PRES   REMARKS
HARRISBURG PA  LGT RAIN  52  45  77 W14       29.58R
BALTIMORE      LGT RAIN  57  51  80 NW9G20    29.60R
ANNAPOLIS      LGT RAIN  62  59  90 W8        29.60R
ANDREWS AFB    CLOUDY    61  61 100 SW12G21   29.60R
PHILADELPHIA   LGT RAIN  65  61  87 SW17      29.56R
HENDERSON NC   LGT RAIN  61  56  84 SW7       29.70R
GREENSBORO     CLOUDY    56  52  86 W12       29.69R
ROCKY MOUNT    CLOUDY    65  62  90 S10       29.71R
$$

VAZ100-250800-
MARINE

STATION/POSITION TIME  TEMP    WIND        PRES    WAVE   SWELL
                       AIR SEA DIR/SP/G            HT/PER HT/PER
                 (UTC) (F)     (DEG/KT/KT) (MB)    (FT/S) (FT/S)
CAPE MAY NJ      0700   57 47  180/  8/ 13 1002.1R
LEWES DE         0700   63 44  220/  6/ 10 1002.5S
15NM E FENWICK I 0700   50 45              1003.7R   6/ 8
OCEAN-CITY-INLET 0700   56 45  230/ 16/ 20 1003.5S
WACHAPREAGUE VA  0700   54 48  210/  7/  9 1004.3S
THOMAS POINT MD  0700   61 42  250/ 17/ 19 1003.1R
GOOSES REEF MD   0700   53     VRB 10/ 10  1001.5S
COVE POINT MD    0700   64     220/ 10/ 13 1002.3R
SOLOMONS ISLAND  0700      43                N/A
BISHOPS HEAD MD  0700   52 46  190/  9/ 10 1002.9R
PINEY POINT MD   0700          240/ 10/ 12   N/A
POTOMAC MD       0700   57     230/ 12/ 16 1002.0R
CAMBRIDGE MD     0700   63 40  190/  5/  8 1002.4S
LEWISETTA VA     0700   64 44  230/ 15/ 20 1002.3S
RAPPAHANNOCK LGT 0700          190/ 16/ 17 1004.6S
STINGRAY PT      0700   56     220/ 12/ 16 1004.3F
YORK RVR RNG VA  0700   62     230/ 16/ 19 1003.5F
YORKTOWN VA      0700   67 45  220/ 10/ 13 1003.8F
JAMESTOWN VA     0700   63     240/ 12/ 14   N/A
DOMINION TERM VA 0700   59     230/ 12/ 13 1004.6F
KIPTOPEKE VA     0700      50  220/  9/ 11   N/A
CHES BAY BRIDGE  0700   65 47  200/ 16/ 19 1004.1S
CAPE HENRY VA    0700   67     210/  8/ 19 1003.7R
CHESAPEAKE LGHT  0600   56     190/ 23/ 24 1004.5R
WILLOUBY STN VA  0700   65     220/ 16/ 18 1005.0S
S CRANEY ISL VA  0700          210/  8/ 12 1004.6R
CAPE HENRY BUOY  0700      48                N/A     5/ 8
1ST LANDING BUOY 0700   60     220/ 12/ 14 1004.6S
CAPE CHARLES BUO 0700      48                N/A     4/ 8   2/ 8
64NM E OF VA BCH 0700   60 53  190/ 17/ 19 1005.3R   7/ 8   5/ 8
DUCK PIER NC     0700   67 50  210/ 17/ 20 1004.8R
44100 DUCK FRF   0700      50                N/A     4/ 8
44056 DUCK FRF   0700      50                N/A     3/ 8   2/11
OREGON INLET NC  0700   60 53  180/ 17/ 21 1006.2S
HATTERAS NC      0700   67 56  190/  6/ 11 1007.1F
DIAMOND SHLS NC  0700   75                 1006.5R   9/ 7
CAPE LOOKOUT NC  0600   65     200/ 15/ 19 1007.3S
$$



USA.gov is the U.S. government's official web portal to all federal, state and local government web resources and services.